{"data":{"norad_id":63910,"epoch":"2026-09-20T09:35:19.853376Z","epoch_age_seconds":155768,"freshness":"FRESH","line1":"1 63910U 25095W   26263.39953534  .00015039  00000+0  55466-3 0  9996","line2":"2 63910  42.9971 156.8125 0001075  33.5877 326.5043 15.27595286 77554","mean_motion":15.27595286,"eccentricity":0.0001075,"inclination_deg":42.9971,"raan_deg":156.8125,"arg_perigee_deg":33.5877,"mean_anomaly_deg":326.5043,"bstar":0.00055466,"rev_number":7755,"period_min":94.265805426163,"perigee_km":482.26575205333,"apogee_km":483.74089722312,"semimajor_km":6861.1403246382,"source":"CELESTRAK","updated_at":"2026-09-21T09:00:35.147021Z"}}